Temperature
29 29 30 29 29 29 29 30 30 30 30 29 28 28 26 25 24 24 23 23 22 22 22 21 21 21 21 21 21 20 20 20 20 20 20 20 19 19 19 19 18 18 18 17
28 28 29 28 29 29 29 29 29 29 29 28 27 26 25 24 24 23 23 22 21 21 21 20 20 20 20 21 20 20 20 20 20 20 20 19 19 19 19 19 18 18 18 18
28 28 28 28 28 28 28 29 29 29 28 27 26 25 24 23 23 23 22 21 21 20 20 20 20 20 20 20 20 20 20 20 20 19 19 19 19 19 19 18 18 18 18 18
27 27 26 27 27 28 28 28 28 27 27 26 25 23 22 22 22 21 21 21 20 20 20 20 19 19 20 19 19 19 19 19 19 19 19 19 19 18 18 18 18 18 18 18
27 27 27 26 26 27 27 26 26 26 25 24 23 23 23 21 21 20 20 20 19 19 20 19 19 19 19 19 19 19 19 19 19 18 18 18 19 18 18 18 18 18 17 17
26 26 26 27 26 25 26 25 25 25 24 24 24 25 24 21 20 19 19 19 19 19 19 19 19 19 19 18 19 19 19 19 18 18 18 18 18 18 18 18 17 17 17 17
25 25 26 25 24 24 25 25 23 23 22 23 23 23 21 19 19 19 18 18 18 18 18 18 18 18 18 18 18 18 18 18 18 18 18 18 17 18 17 17 17 17 17 17
25 25 25 23 24 24 23 21 21 21 21 21 20 19 19 19 18 18 18 18 18 18 18 18 18 18 18 18 18 18 18 18 18 18 17 17 17 17 17 17 17 16 16 16
24 23 21 20 21 20 20 20 20 20 20 19 19 19 18 18 18 18 17 17 17 17 18 17 17 17 17 17 17 17 17 17 17 17 17 17 17 16 16 16 16 16 16 16
21 21 20 19 19 19 19 19 19 19 18 18 18 18 18 17 17 17 17 17 17 17 17 17 17 17 17 17 17 16 16 16 16 16 16 16 16 16 16 16 16 16 16 15
21 20 19 19 18 18 18 18 18 17 17 17 17 17 17 17 16 16 16 16 16 16 16 16 16 16 16 16 16 16 16 16 16 16 16 16 16 16 16 16 16 16 15 15
21 19 20 18 17 17 17 17 17 17 17 16 16 16 16 16 16 15 16 16 16 15 15 15 16 15 15 16 15 15 15 15 15 15 15 15 15 15 16 15 15 15 15 15
18 18 17 17 16 16 16 16 16 16 16 16 16 15 15 15 15 15 15 15 15 15 15 15 15 15 15 15 15 15 15 15 15 15 15 15 15 15 15 15 15 15 15 15
16 16 16 16 16 15 15 15 15 15 15 15 15 15 15 15 15 15 15 15 15 14 14 15 15 15 15 15 15 14 14 14 14 14 14 14 14 14 14 14 14 14 15 14
15 16 16 15 15 15 15 15 15 15 15 14 14 14 14 14 14 14 14 14 14 14 14 14 14 14 14 14 14 14 14 14 14 14 14 14 14 14 14 14 14 14 14 14
15 15 15 15 15 15 15 15 14 14 14 14 14 14 14 14 14 14 14 14 14 14 14 14 13 13 13 13 13 13 14 14 14 14 14 14 14 14 14 14 14 13 13 13
15 15 15 15 14 14 14 14 14 13 13 13 13 13 13 13 13 13 13 13 13 13 13 13 13 13 13 13 13 13 13 13 13 13 13 13 13 13 13 13 13 13 13 12
14 14 14 14 14 14 13 13 13 13 13 12 12 13 12 12 12 12 12 13 13 13 12 12 13 13 13 13 13 13 13 13 13 13 13 13 13 13 13 13 13 12 12 12
14 14 13 13 13 13 13 13 12 12 12 12 12 12 12 12 12 12 12 12 12 12 12 12 12 12 12 12 12 12 13 13 13 13 12 12 12 12 12 12 12 12 12 12
13 13 13 13 13 12 12 12 12 12 11 11 11 11 11 11 11 11 11 11 11 11 12 12 12 12 12 12 12 12 12 12 12 12 12 12 12 12 12 12 12 12 11 11
13 13 13 12 12 12 12 11 11 11 11 11 11 11 11 11 11 11 11 11 11 11 11 11 11 11 11 11 11 12 12 12 12 12 12 12 12 12 12 11 11 11 11 11
12 12 12 12 12 12 11 11 11 11 11 11 11 11 11 11 11 11 10 10 11 11 11 11 11 11 11 11 11 11 12 12 12 12 12 12 12 11 11 11 11 11 11 11
12 12 12 11 11 11 11 11 11 11 11 11 11 11 10 10 10 10 10 10 10 11 10 10 11 11 11 11 11 11 11 11 11 11 11 11 11 11 11 11 11 10 10 10
11 11 11 11 11 11 11 11 11 11 11 11 11 10 10 10 10 10 10 10 10 10 10 10 10 11 11 11 11 11 11 11 11 11 11 11 11 11 10 10 10 10 10 10
11 11 11 11 11 11 11 11 11 11 11 11 11 10 10 10 10 10 10 10 10 10 10 10 10 10 10 10 10 10 11 11 11 11 10 10 10 10 10 10 10 10 10 10
11 11 11 11 11 11 11 11 11 11 11 11 11 10 10 10 10 10 10 10 10 10 10 10 10 10 10 10 10 10 10 10 10 10 10 10 10 10 10 9 9 9 9 9
11 11 11 11 11 11 11 11 11 11 11 10 10 10 10 10 10 10 10 10 10 10 10 10 10 10 10 10 9 9 9 9 9 9 9 9 9 9 9 9 9 9 8 8
Wind_Speed
10 8 9 10 11 13 14 14 13 10 9 5 3 3 4 5 6 7 7 7 7 7 7 7 7 7 7 7 7 7 8 8 8 8 7 7 7 7 6 6 6 6 5 5
11 10 9 10 10 11 12 12 12 10 7 2 1 3 4 5 6 6 7 6 6 5 5 5 6 6 6 6 7 7 7 7 7 6 7 7 7 7 7 7 6 6 6 6
12 12 12 13 11 11 10 10 11 11 6 4 4 4 4 5 6 6 5 4 4 4 4 4 5 5 6 6 6 7 7 7 6 7 7 7 8 7 7 7 7 6 6 7
10 11 15 7 4 7 8 6 6 4 4 4 3 4 3 4 5 4 4 3 3 3 3 4 4 5 5 6 6 7 7 7 7 7 7 7 8 8 8 7 7 7 7 7
10 13 11 6 5 6 7 6 4 5 4 4 6 5 4 4 3 3 3 2 2 2 3 3 3 4 4 5 6 6 7 7 7 7 7 7 7 7 7 7 7 7 7 7
9 12 13 6 5 3 6 7 5 5 5 5 6 5 4 4 3 3 3 2 1 1 2 2 2 3 4 4 5 6 6 6 6 7 7 7 7 6 6 7 7 7 7 7
11 11 6 3 3 5 8 3 4 4 4 4 2 1 3 2 1 2 2 1 1 1 1 2 2 3 3 3 3 3 3 4 4 5 6 6 6 5 5 6 6 6 6 6
9 10 5 3 3 3 2 3 3 3 2 1 3 3 2 1 1 1 1 1 1 1 1 1 1 2 2 2 2 2 2 3 3 4 5 5 5 5 5 5 6 6 6 6
2 0 5 3 3 3 2 2 3 3 3 3 3 2 1 1 1 1 1 1 1 1 1 1 0 1 2 2 1 1 2 2 3 3 4 4 5 5 5 5 6 6 6 6
1 2 2 3 3 3 3 3 3 3 3 2 2 1 1 1 1 1 1 1 1 1 1 1 1 1 2 2 2 3 3 3 3 3 4 4 4 4 5 5 6 6 6 6
3 3 2 2 2 3 4 4 5 5 4 3 2 1 1 1 1 2 2 2 2 2 2 2 2 2 3 3 3 4 4 4 3 4 4 3 3 3 5 5 5 6 6 6
2 2 2 2 2 3 4 4 4 3 3 2 1 1 1 1 2 2 2 2 3 3 3 4 3 4 4 4 4 5 5 5 4 4 4 4 4 3 3 4 5 6 5 5
1 1 3 3 3 3 4 3 3 2 2 3 2 2 2 2 2 3 3 4 4 4 4 4 4 5 5 4 5 5 6 6 5 5 5 5 4 4 4 3 3 5 5 4
3 4 4 4 3 3 4 3 3 2 3 4 3 3 3 3 4 4 4 5 5 5 5 4 4 5 5 4 4 5 6 5 5 5 5 5 5 5 5 4 4 3 4 6
3 3 4 4 3 3 3 2 2 3 3 4 4 4 4 4 5 5 5 5 5 5 5 5 5 5 5 5 5 5 5 4 4 4 5 5 5 5 5 5 4 3 2 3
4 4 4 4 3 2 2 2 3 4 4 4 5 4 5 5 5 5 5 5 4 5 6 5 5 5 5 5 5 4 3 3 4 4 4 4 4 5 5 5 4 4 4 3
4 3 3 2 1 2 3 3 4 4 5 5 5 5 5 5 5 5 5 5 5 5 6 5 5 5 4 4 4 4 3 2 4 4 4 4 4 4 4 5 4 4 4 3
2 2 2 1 1 2 3 3 4 4 5 6 6 6 5 5 6 6 6 5 5 5 6 5 5 5 4 4 4 4 4 4 4 4 4 4 4 4 5 4 5 5 4 3
3 3 2 2 1 2 3 3 4 5 5 5 6 6 6 5 5 5 6 5 5 6 6 6 6 5 5 4 4 4 4 3 3 3 3 4 4 4 4 5 5 4 4 3
3 3 2 1 1 2 3 3 4 4 5 5 5 5 5 5 5 5 5 5 5 5 6 7 7 6 6 4 4 4 3 3 3 3 3 4 4 4 4 4 4 4 3 3
3 2 1 1 1 2 2 3 3 3 4 4 4 4 4 5 5 5 5 5 6 6 6 6 5 5 5 5 5 4 4 3 3 4 4 4 4 4 3 3 3 3 3 3
2 2 1 1 1 1 2 3 3 4 4 4 4 4 4 4 5 5 5 5 6 5 5 5 4 5 6 6 4 4 4 4 4 4 4 3 3 3 3 3 3 2 2 2
2 1 1 1 1 1 2 3 4 4 4 4 3 4 4 4 4 4 5 5 5 6 5 4 5 6 7 5 4 4 4 4 4 4 4 3 3 3 2 2 2 2 2 2
1 1 1 1 1 2 3 4 4 3 3 3 3 4 4 4 3 4 4 4 4 6 5 4 5 6 6 3 3 3 3 3 3 3 3 3 2 1 1 1 2 2 2 3
1 1 1 1 1 2 2 3 2 2 3 3 4 4 3 3 3 4 4 5 5 5 4 4 3 5 4 3 3 3 3 3 3 3 2 2 2 1 1 1 2 2 2 2
1 1 1 2 2 2 2 2 3 3 3 3 3 4 4 3 3 3 3 4 4 4 4 4 4 4 4 4 4 3 3 2 2 2 2 2 2 2 2 2 3 3 3 3
1 0 1 1 2 2 2 2 3 3 3 4 4 4 4 4 4 4 4 3 3 3 4 4 4 4 4 4 4 3 3 2 3 3 3 3 2 3 3 3 3 3 3 4
Wind_Direction
234 233 220 218 221 222 233 245 253 249 245 235 220 195 172 162 154 153 156 163 167 171 173 177 177 180 186 188 187 186 189 195 194 192 190 189 194 194 193 196 192 188 193 201
220 220 220 227 230 226 230 240 246 248 243 207 193 148 147 155 158 157 159 163 168 172 172 177 180 183 184 187 185 184 190 194 191 191 191 191 194 192 193 197 198 194 201 207
219 213 224 230 231 229 227 233 238 240 231 173 160 159 156 158 159 155 152 153 160 170 177 182 187 189 189 188 183 184 192 195 190 194 199 201 201 196 198 200 199 201 206 210
219 210 228 225 216 229 222 224 234 228 192 180 161 140 137 146 146 146 145 148 153 167 175 178 180 186 188 181 181 189 194 196 196 199 203 204 204 205 205 207 206 204 207 212
224 222 222 199 200 208 210 212 200 200 181 161 148 145 138 125 126 134 138 140 157 177 174 170 172 172 178 183 186 192 200 202 202 203 205 205 205 206 207 209 215 212 209 214
226 233 232 201 166 202 217 207 171 179 166 161 173 198 152 115 114 109 103 99 105 138 156 163 172 169 181 191 192 201 204 203 204 208 210 211 208 207 210 209 216 217 214 214
226 232 227 89 139 185 218 193 143 169 173 184 194 39 100 105 114 122 102 85 72 98 125 148 163 172 186 195 208 215 212 204 202 207 213 215 216 215 214 213 215 218 213 211
224 230 211 75 177 204 47 79 139 147 163 153 91 97 108 101 111 135 89 61 63 73 84 88 154 167 178 195 221 215 201 202 205 209 214 210 210 213 211 214 214 213 213 215
252 215 71 54 57 49 60 110 122 125 111 119 133 127 111 76 33 24 27 11 357 359 8 3 202 186 201 224 225 206 199 215 216 213 218 217 213 213 212 216 220 217 217 218
161 117 89 72 73 71 75 88 92 94 95 112 117 104 64 8 354 352 331 321 310 299 297 314 302 248 236 235 221 210 214 222 222 221 223 221 228 225 225 228 228 224 221 221
188 162 141 101 77 75 76 78 76 69 62 49 69 49 21 2 343 341 331 309 291 284 285 285 286 274 257 245 231 226 225 228 232 230 226 217 223 238 233 233 232 230 227 221
218 179 196 138 84 74 81 77 70 64 52 28 5 356 340 336 333 329 325 323 311 301 294 292 290 286 278 259 242 239 242 238 234 234 227 222 219 233 230 237 217 211 227 232
108 128 106 118 98 80 75 65 51 43 27 359 354 1 346 331 324 326 327 323 313 304 299 296 293 292 288 272 251 242 245 248 247 241 237 234 230 235 246 238 200 198 198 196
114 115 115 111 100 83 75 60 46 29 17 357 353 345 335 324 321 322 322 318 315 310 302 296 293 294 293 280 259 251 252 247 244 240 240 243 240 237 236 235 236 241 203 180
122 118 123 119 108 88 68 45 17 3 3 353 347 342 331 318 314 315 314 313 316 311 304 299 296 294 293 279 267 263 259 252 248 249 243 239 235 235 234 234 236 239 233 182
120 115 117 117 99 69 44 14 354 346 341 338 336 338 332 319 311 312 310 308 307 302 301 298 295 294 291 281 276 267 259 252 244 243 244 241 239 238 235 231 230 227 223 209
145 142 136 119 76 28 11 354 341 334 331 327 326 326 324 318 313 312 311 311 311 306 300 296 298 301 297 288 278 275 270 256 233 242 244 245 247 247 245 241 236 233 232 210
149 148 145 129 59 5 356 349 345 340 331 325 321 319 318 317 317 320 317 314 317 312 309 307 310 304 292 286 284 281 274 261 253 255 259 259 256 254 251 245 237 238 237 205
122 118 110 85 44 16 356 349 346 342 334 327 319 316 317 317 316 319 320 321 324 320 321 322 320 304 297 300 299 278 272 269 265 263 261 251 247 251 251 248 243 239 231 227
128 124 110 79 37 355 335 332 339 338 333 326 319 316 318 317 312 313 320 322 327 326 323 320 314 308 304 306 301 290 290 285 280 273 263 258 257 253 249 247 247 242 242 244
129 128 113 66 358 336 328 327 324 324 327 332 336 334 335 326 319 317 320 322 326 328 321 312 307 309 306 308 289 286 289 287 278 270 262 256 254 251 247 243 243 242 244 249
119 114 96 22 2 358 345 322 318 323 329 334 337 338 337 328 326 327 326 320 320 325 317 314 316 322 313 300 287 284 282 277 273 271 267 259 254 249 245 245 245 245 246 255
104 82 43 27 21 9 346 336 332 328 329 332 336 332 328 324 320 322 327 333 329 330 325 328 333 324 304 286 281 277 275 275 276 274 266 261 262 260 257 258 262 263 260 263
94 48 12 2 352 341 336 339 340 336 336 335 336 333 321 318 320 322 328 336 337 327 327 343 338 317 292 287 290 293 295 292 291 291 295 295 289 288 296 291 287 283 274 272
89 65 23 338 320 330 334 332 333 336 342 347 348 349 339 335 329 329 329 334 336 323 330 343 338 321 318 327 320 317 318 329 329 328 328 327 331 334 329 306 289 282 279 279
50 12 13 340 328 316 316 323 331 336 338 346 352 356 356 354 349 344 342 344 341 337 338 342 350 338 345 348 348 348 351 6 358 335 341 340 339 337 334 326 316 311 309 309
38 13 314 320 332 335 335 332 331 336 342 347 348 349 351 352 353 351 344 343 345 346 346 349 353 353 355 0 1 356 354 359 6 359 352 349 349 346 345 343 336 335 336 337
Height
1470 1467 1469 1473 1476 1477 1479 1477 1481 1480 1481 1481 1484 1487 1491 1493 1496 1498 1500 1503 1504 1506 1508 1510 1511 1513 1515 1516 1518 1519 1521 1523 1524 1525 1526 1528 1529 1530 1530 1531 1532 1532 1533 1533
1475 1471 1471 1475 1474 1474 1476 1476 1477 1478 1481 1483 1486 1489 1491 1493 1495 1497 1499 1501 1503 1505 1506 1507 1509 1510 1511 1513 1514 1516 1517 1519 1521 1522 1523 1524 1525 1526 1527 1528 1528 1528 1529 1530
1475 1472 1475 1479 1474 1473 1474 1474 1475 1478 1480 1484 1487 1489 1492 1493 1495 1497 1498 1500 1501 1502 1503 1505 1506 1507 1508 1510 1512 1513 1515 1516 1517 1519 1520 1521 1522 1522 1523 1524 1525 1525 1526 1527
1472 1479 1490 1474 1470 1470 1472 1474 1475 1477 1481 1484 1487 1491 1493 1495 1495 1497 1498 1499 1500 1501 1502 1503 1504 1505 1506 1507 1509 1510 1512 1513 1514 1515 1516 1517 1517 1518 1519 1520 1521 1522 1522 1523
1472 1477 1476 1474 1472 1472 1474 1477 1477 1479 1482 1485 1488 1490 1493 1495 1496 1497 1498 1499 1499 1500 1501 1501 1502 1503 1504 1505 1506 1507 1508 1509 1511 1512 1512 1512 1513 1514 1515 1516 1517 1518 1518 1519
1473 1478 1480 1470 1470 1473 1476 1480 1480 1481 1484 1485 1486 1485 1490 1494 1495 1496 1497 1498 1498 1498 1499 1499 1500 1500 1501 1502 1503 1504 1505 1505 1507 1508 1508 1509 1509 1510 1511 1511 1513 1514 1514 1515
1472 1474 1468 1472 1473 1475 1482 1479 1482 1483 1485 1486 1486 1487 1493 1494 1495 1495 1496 1496 1496 1497 1497 1497 1497 1498 1499 1500 1500 1501 1502 1502 1503 1504 1505 1506 1506 1506 1506 1507 1508 1509 1510 1510
1470 1474 1475 1476 1474 1476 1479 1482 1482 1484 1486 1488 1489 1490 1492 1493 1494 1494 1495 1495 1495 1495 1495 1495 1495 1496 1496 1496 1497 1498 1498 1499 1499 1500 1500 1501 1501 1501 1502 1503 1504 1504 1505 1506
1471 1475 1479 1480 1480 1482 1483 1483 1484 1485 1487 1488 1489 1490 1491 1492 1492 1492 1493 1493 1493 1493 1492 1493 1493 1493 1493 1493 1494 1494 1495 1495 1496 1496 1496 1497 1497 1497 1497 1498 1499 1500 1500 1501
1476 1478 1480 1482 1483 1484 1484 1485 1486 1487 1487 1488 1489 1490 1490 1491 1490 1490 1490 1490 1491 1491 1490 1490 1490 1490 1490 1490 1490 1491 1491 1491 1492 1492 1492 1493 1493 1493 1493 1494 1494 1495 1495 1496
1477 1481 1482 1483 1484 1485 1485 1486 1487 1488 1488 1488 1489 1489 1489 1489 1489 1488 1488 1488 1488 1488 1488 1488 1488 1487 1487 1487 1487 1487 1487 1488 1488 1489 1489 1489 1489 1489 1489 1489 1490 1490 1490 1491
1475 1480 1480 1483 1484 1485 1485 1486 1487 1488 1488 1489 1488 1488 1488 1488 1487 1487 1486 1485 1485 1485 1485 1485 1485 1484 1484 1483 1483 1483 1484 1484 1484 1485 1485 1485 1485 1485 1484 1485 1485 1485 1485 1486
1481 1481 1482 1484 1485 1486 1487 1488 1488 1488 1488 1488 1487 1487 1487 1486 1486 1485 1484 1484 1483 1482 1482 1481 1481 1481 1480 1480 1479 1479 1479 1480 1481 1481 1481 1480 1480 1480 1480 1481 1480 1480 1480 1481
1482 1483 1484 1485 1486 1487 1488 1488 1488 1488 1487 1487 1486 1486 1485 1485 1484 1483 1482 1482 1481 1480 1479 1478 1478 1477 1477 1476 1476 1475 1476 1476 1476 1476 1476 1476 1476 1476 1476 1476 1475 1475 1476 1476
1483 1484 1485 1486 1487 1488 1488 1488 1488 1488 1487 1487 1486 1485 1484 1483 1482 1481 1480 1479 1478 1477 1476 1476 1475 1474 1474 1473 1472 1472 1472 1472 1472 1472 1472 1472 1472 1472 1472 1471 1471 1472 1472 1472
1484 1485 1486 1487 1487 1488 1488 1488 1488 1487 1487 1486 1485 1483 1482 1481 1480 1479 1478 1477 1475 1475 1474 1473 1472 1471 1471 1470 1470 1469 1468 1468 1468 1468 1468 1468 1468 1468 1468 1468 1468 1468 1468 1468
1484 1485 1486 1487 1488 1488 1488 1487 1487 1486 1486 1485 1483 1482 1480 1479 1478 1477 1476 1475 1473 1472 1471 1470 1469 1468 1468 1467 1467 1466 1465 1464 1464 1464 1465 1464 1464 1464 1464 1464 1464 1464 1465 1465
1484 1486 1486 1487 1487 1487 1487 1486 1486 1485 1484 1483 1482 1480 1479 1477 1476 1474 1473 1472 1470 1469 1468 1468 1467 1465 1465 1464 1464 1463 1463 1462 1461 1461 1461 1461 1461 1461 1461 1461 1461 1461 1462 1462
1484 1485 1486 1487 1487 1486 1486 1485 1485 1484 1483 1482 1480 1479 1477 1476 1474 1473 1471 1470 1468 1467 1466 1465 1464 1463 1463 1462 1461 1460 1460 1459 1459 1458 1458 1458 1458 1458 1458 1458 1458 1458 1458 1458
1484 1486 1486 1486 1486 1486 1485 1485 1484 1482 1481 1480 1478 1477 1475 1474 1473 1471 1470 1468 1466 1465 1464 1463 1462 1461 1460 1459 1458 1458 1458 1457 1456 1456 1456 1455 1455 1454 1454 1455 1455 1455 1455 1455
1484 1485 1485 1486 1485 1485 1484 1483 1483 1481 1480 1479 1477 1475 1474 1472 1471 1470 1468 1466 1465 1464 1462 1460 1459 1458 1457 1456 1456 1455 1455 1455 1454 1453 1453 1452 1452 1452 1452 1452 1452 1452 1452 1452
1484 1484 1485 1485 1484 1483 1483 1482 1481 1480 1478 1477 1476 1474 1472 1471 1470 1468 1467 1466 1464 1462 1460 1458 1457 1455 1454 1453 1453 1452 1452 1452 1451 1451 1450 1450 1450 1449 1449 1449 1449 1449 1449 1449
1484 1484 1484 1484 1483 1483 1482 1481 1480 1478 1477 1475 1474 1473 1472 1470 1469 1467 1466 1465 1463 1460 1458 1456 1454 1452 1451 1450 1450 1450 1449 1449 1449 1448 1448 1448 1447 1447 1447 1446 1446 1446 1446 1446
1483 1483 1483 1483 1482 1482 1480 1480 1478 1477 1476 1474 1473 1472 1471 1469 1468 1466 1465 1463 1461 1459 1457 1455 1453 1450 1449 1449 1448 1448 1447 1447 1447 1446 1446 1445 1445 1445 1444 1444 1444 1444 1444 1444
1483 1483 1483 1482 1481 1480 1479 1478 1477 1476 1475 1473 1472 1471 1470 1468 1467 1465 1464 1462 1460 1458 1457 1454 1452 1449 1448 1447 1446 1446 1445 1445 1445 1444 1444 1443 1443 1443 1443 1443 1442 1442 1442 1441
1482 1482 1482 1481 1481 1480 1479 1478 1476 1475 1474 1473 1472 1470 1469 1468 1466 1464 1463 1461 1460 1458 1456 1454 1452 1450 1448 1447 1446 1445 1444 1444 1443 1443 1442 1442 1442 1441 1441 1441 1441 1440 1439 1439
1482 1481 1481 1480 1480 1479 1478 1477 1476 1475 1474 1472 1471 1470 1468 1467 1466 1464 1463 1461 1460 1458 1456 1454 1452 1450 1449 1447 1446 1445 1444 1443 1443 1442 1442 1441 1441 1440 1440 1439 1438 1438 1436 1436